National Weather Service Raw Text Product

Displaying AFOS PIL: RWRWI Received: 2018-02-19 00:00 UTC


124 
ASUS43 KMKX 190000
RWRWI 

WISCONSIN REGIONAL WEATHER ROUNDUP
NATIONAL WEATHER SERVICE MILWAUKEE/SULLIVAN WI
600 PM CST SUN FEB 18 2018

NOTE: "FAIR" INDICATES FEW OR NO CLOUDS BELOW 12,000 FEET WITH NO
SIGNIFICANT WEATHER AND/OR OBSTRUCTIONS TO VISIBILITY.

WIZ001-002-006>008-014>016-023>028-190100-
NORTHWEST WISCONSIN
  
CITY           SKY/WX    TMP DP  RH WIND       PRES   REMARKS
SUPERIOR ARPT  LGT SNOW  25  24  95 NE10G18   29.74R WCI  15          
6HR MIN TEMP:  21; 6HR MAX TEMP:  25; 6HR PCP:  0.03;                

ASHLAND        LGT SNOW  23  21  92 N14       29.72R VSB 1   WCI  11  
6HR MIN TEMP:  21; 6HR MAX TEMP:  28; 6HR PCP: TRACE;                

HAYWARD        CLOUDY    37  26  64 S8        29.65R WCI  31          
6HR MIN TEMP:  26; 6HR MAX TEMP:  38;                                

SIREN          CLOUDY    39  28  62 S8        29.64R WCI  34          
CUMBERLAND     CLOUDY    37  27  65 S12       29.65R WCI  30          
RICE LAKE      CLOUDY    40  26  57 S16G22    29.67S WCI  32          
CHETEK         NOT AVBL                                               
LADYSMITH      CLOUDY    38  25  58 S9        29.69F WCI  32          
EAU CLAIRE     NOT AVBL                                               
MENOMONIE      FAIR      40  26  57 S14       29.68R WCI  32          
6HR MIN TEMP:  32; 6HR MAX TEMP:  43;                                

NEW RICHMOND   FAIR      39  28  63 S10       29.65R WCI  32          
OSCEOLA        CLOUDY    39  29  67 S10       29.67R WCI  33          
$$
 
WIZ003>005-009-010-017-018-190100-
NORTH CENTRAL WISCONSIN
  
CITY           SKY/WX    TMP DP  RH WIND       PRES   REMARKS
MANITOWISH WTR CLOUDY    33  23  66 S10G17    29.67S WCI  25          
ARBOR VITAE    CLOUDY    37  26  67 S15G21    29.69S WCI  27          
WOODRUFF       CLOUDY    37  26  67 S15G21    29.69S WCI  27          
RHINELANDER    CLOUDY    34  23  64 S12       29.72F WCI  25          
6HR MIN TEMP:  23; 6HR MAX TEMP:  35;                                

EAGLE RIVER    MOCLDY    32  21  63 S10G16    29.70F WCI  24          
6HR MIN TEMP:  22; 6HR MAX TEMP:  32;                                

LAND O LAKES   CLOUDY    32  22  66 S17G23    29.71F WCI  21          
PHILLIPS       CLOUDY    34  24  65 S14       29.68S WCI  25          
TOMAHAWK       FAIR      33  22  65 S7        29.72F WCI  27          
MEDFORD        FAIR      32  23  68 S13G18    29.72S WCI  23          
MERRILL        FAIR      34  23  64 S10       29.76S WCI  26          
$$
 
WIZ029-030-035-036-043>047-190100-
CENTRAL WISCONSIN
  
CITY           SKY/WX    TMP DP  RH WIND       PRES   REMARKS
WAUSAU         FAIR      32  23  69 S13       29.76F WCI  22          
6HR MIN TEMP:  27; 6HR MAX TEMP:  35;                                

MOSINEE        MOCLDY    32  25  74 S16       29.78F WCI  21          
MARSHFIELD     FAIR      33  24  69 S14       29.74S WCI  23          
6HR MIN TEMP:  30; 6HR MAX TEMP:  36;                                

STEVENS POINT  FAIR      31  22  69 S12       29.81R WCI  22          
WAUPACA        CLOUDY    37  25  62 SE13G23   29.81F WCI  28          
WAUTOMA        CLOUDY    34  23  64 S15G23    29.80  WCI  24          
6HR MIN TEMP:  34; 6HR MAX TEMP:  36;                                

WISC RAPIDS    CLOUDY    35  22  58 S7        29.80R WCI  29          
6HR MIN TEMP:  34; 6HR MAX TEMP:  38;                                

CAMP DOUGLAS   CLOUDY    38  24  56 S16G23    29.78R WCI  30          
6HR MIN TEMP:  36; 6HR MAX TEMP:  39;                                

$$
 
WIZ011>013-019>022-031-037>040-048>050-190100-
NORTHEAST WISCONSIN
  
CITY           SKY/WX    TMP DP  RH WIND       PRES   REMARKS
ANTIGO         FAIR      29  23  76 S13       29.79R WCI  19          
SHAWANO        CLOUDY    37  24  58 S9        29.82F WCI  31          
OCONTO         CLOUDY    32  27  81 S10G22    29.86F WCI  23          
STURGEON BAY   CLOUDY    33  28  81 S30G37    29.84F WCI  19          
6HR MIN TEMP:  28; 6HR MAX TEMP:  33;                                

GREEN BAY      CLOUDY    33  25  72 S20       29.84F WCI  21          
6HR MIN TEMP:  31; 6HR MAX TEMP:  37;                                

MANITOWOC      CLOUDY    33  28  81 S21G38    29.90F WCI  21          
6HR MIN TEMP:  32; 6HR MAX TEMP:  34;                                

APPLETON       MOCLDY    34  21  60 SE17      29.81F WCI  23          
CLINTONVILLE   CLOUDY    35  24  62 S10G18    29.82R WCI  28          
6HR MIN TEMP:  30; 6HR MAX TEMP:  35;                                

OSHKOSH        CLOUDY    36  24  62 S18G26    29.81F WCI  26          
6HR MIN TEMP:  35; 6HR MAX TEMP:  38;                                

$$
 
WIZ032>034-041-042-053>061-190100-
SOUTHWEST WISCONSIN
  
CITY           SKY/WX    TMP DP  RH WIND       PRES   REMARKS
LA CROSSE      FAIR      40  26  57 S12       29.74S WCI  33          
6HR MIN TEMP:  37; 6HR MAX TEMP:  42;                                

SPARTA         FAIR      37  26  64 S7        29.78R WCI  32          
VIROQUA        MOCLDY    37  28  69 S13G18    29.76R WCI  29          
BOSCOBEL       FAIR      40  28  62 S6        29.80S                  
6HR MIN TEMP:  33; 6HR MAX TEMP:  41;                                

PRAIRIE DU CHI FAIR      39  28  63 SE10G22   29.76F WCI  32          
PLATTEVILLE    FAIR      37  31  80 SE17      29.80F WCI  27          
$$

WIZ056-057-062-063-064-067-068-190100-
SOUTH CENTRAL WISCONSIN
  
CITY           SKY/WX    TMP DP  RH WIND       PRES   REMARKS
REEDSBURG      CLOUDY    35  26  69 S14G24    29.79S WCI  25          
6HR MIN TEMP:  34; 6HR MAX TEMP:  38;                                

BARABOO/DELLS  CLOUDY    34  25  69 S25G33    29.78F WCI  21          
LONE ROCK      NOT AVBL                                               
MINERAL POINT  FAIR      36  32  87 SE21G30   29.79F WCI  24          
MADISON        MOCLDY    34  27  75 S21G36    29.83F WCI  22          
6HR MIN TEMP:  30; 6HR MAX TEMP:  36;                                

MIDDLETON      FAIR      35  29  78 S18G28    29.83F WCI  25          
WATERTOWN      FAIR      35  24  63 S14G22    29.88F WCI  26          
MONROE         FAIR      32  30  93 SE18G25   29.84F WCI  20          
JANESVILLE     MOCLDY    36  30  80 S20G25    29.88F WCI  25          
$$
 
WIZ051-052-058>065-066-070>072-190100-
SOUTHEAST WISCONSIN
  
CITY           SKY/WX    TMP DP  RH WIND       PRES   REMARKS
MILWAUKEE      MOCLDY    34  28  79 S21G31    29.94F WCI  22          
6HR MIN TEMP:  33; 6HR MAX TEMP:  39;                                

WAUKESHA       CLEAR     30  25  80 SE13      29.92F WCI  20          
MILWAUKEE/TIMM CLEAR     32  25  74 SE12G18   29.95F WCI  23          
RACINE         FAIR      33  29  85 S18G29    29.97F WCI  22          
6HR MIN TEMP:  32; 6HR MAX TEMP:  35;                                

BURLINGTON     FAIR      36  24  63 S10G17    29.93F WCI  28          
KENOSHA        FAIR      34  27  75 S21G30    29.94F WCI  22          
6HR MIN TEMP:  34; 6HR MAX TEMP:  39;                                

FOND DU LAC    CLOUDY    35  23  61 SE18G28   29.84F WCI  24          
6HR MIN TEMP:  35; 6HR MAX TEMP:  38;                                

SHEBOYGAN      CLOUDY    32  29  88 S20G36    29.90F WCI  20          
6HR MIN TEMP:  32; 6HR MAX TEMP:  34;                                

WEST BEND      FAIR      32  28  86 S8G17     29.92F WCI  25          
JUNEAU         CLOUDY    34  23  63 SE15G21   29.88F WCI  24          
$$

LSZ147-162-190100-
LAKE SUPERIOR
  
STATION/POSITION TIME  TEMP    WIND        PRES    WAVE
                       AIR SEA DIR/SP/G            HT/PER
                 (UTC) (F)     (DEG/KT/KT) (MB)    (FT/S)
DEVILS ISLAND    2300   24      60/ 23/ 26 1008.2F
SAXON HARBOR     2340   30      30/  7/  9 1006.1R
$$
 
LMZ867-665-643>646-190100-
LAKE MICHIGAN
  
STATION/POSITION TIME  TEMP    WIND        PRES    WAVE
                       AIR SEA DIR/SP/G            HT/PER
                 (UTC) (F)     (DEG/KT/KT) (MB)    (FT/S)
NORTHPORT PIER   2340   34                 1011.2F
KEWAUNEE LAKESHO 2330   33     170/ 30/ 37 1011.9F
SHEBOYGAN LAKESH 2300   33     170/ 35/ 41 1014.2F
PORT WASHINGTON  2340   33     170/ 23/ 29 1014.9F
MILWAUKEE LAKESH 2330   33     160/ 25/ 29   N/A
KENOSHA   LAKESH 2300   33     160/ 26/ 32 1015.2
$$

TC  - TEMPERATURE IN CELSIUS
VSB - VISIBILITY IN STATUTE MILES
WCI - WIND CHILL INDEX
HX  - HEAT INDEX